[[{"header":{"parameterUnit":"m.s-1","parameterCategory":1,"la1":30.2991,"la2":30.254,"lo1":-89.0895,"lo2":-89.0444,"dy":0.0017,"dx":0.0017,"nx":28,"ny":28,"refTime":"2024-02-14T03:00:00:Z","depth":0,"parameterNumber":2,"parameterNumberName":"U-component_of_WINDS"},"data":[0,0,0,0,0,0,0,0,0,0,0,0,0,0,0,0,0,0,0,0,0,0,0,0,0,0,0,0,0,0,0,0,0,0,0,0,0,0,0,0,0,0,0,0,0,0,0,0,0,0,0,0,0,0,0,0,0,0,-2.9178,-2.9178,0,-2.9237,-2.9238,-2.9238,-2.9127,-2.9124,-2.912,-2.9117,-2.9178,-2.9182,-2.9187,0,0,0,0,0,0,0,0,0,0,0,0,0,-2.8969,-2.8973,-2.9178,-2.9178,-2.9179,-2.9237,-2.9238,-2.9238,-2.9128,-2.9124,-2.9119,-2.9115,-2.9176,-2.9182,-2.9188,0,0,0,0,0,0,0,0,0,0,0,0,0,-2.9047,-2.8975,-2.9178,-2.9131,-2.9128,-2.9237,-2.9238,-2.9239,-2.9129,-2.9124,-2.9118,-2.9113,-2.9174,-2.9181,-2.9189,-2.9346,0,0,-2.9212,-2.9215,0,0,0,0,0,0,0,0,-2.9043,-2.9055,-2.9137,-2.9135,-2.9131,-2.9169,-2.9186,-2.9275,-2.913,-2.9129,-2.9117,-2.911,-2.9179,-2.9186,-2.9209,-2.9349,-2.9352,-2.9213,-2.9217,-2.922,-2.9223,0,0,0,0,0,0,0,-2.9038,-2.9052,-2.9201,-2.9139,-2.9135,-2.9107,-2.9112,-2.9203,-2.9184,-2.9128,-2.912,-2.9129,-2.9176,-2.9202,-2.921,-2.9352,-2.9212,-2.9219,-2.9224,-2.9227,-2.9624,-2.9629,0,0,0,0,0,0,-2.9038,-2.9048,-2.9199,-2.9203,-2.9072,-2.9116,-2.9121,-2.9162,-2.9183,-2.9181,-2.9134,-2.9123,-2.9192,-2.9201,-2.9212,-2.9397,-2.922,-2.9227,-2.9232,-2.9618,-2.9625,-2.9632,0,0,0,0,0,0,-2.9034,-2.9053,-2.9197,-2.9123,-2.914,-2.9125,-2.9172,-2.9166,-2.9192,-2.9187,-2.9183,-2.9163,-2.9188,-2.9201,-2.9313,-2.9397,-2.9231,-2.9238,-2.9611,-2.962,-2.9628,-2.9769,0,0,0,0,0,0,-2.9028,-2.9052,-2.9111,-2.9126,-2.9144,-2.9298,-2.9177,-2.9172,-2.9205,-2.9193,-2.9214,-2.9212,-2.9185,-2.9303,-2.9321,-2.9405,-2.9244,-2.9603,-2.9615,-2.9625,-2.9757,-2.9782,-2.9803,0,0,0,0,0,-2.9021,-2.9149,-2.9115,-2.9134,-2.9218,-2.9303,-2.9314,-2.928,-2.9213,-2.9272,-2.9269,-2.9211,-2.9385,-2.9315,-2.9335,-2.9422,-2.9598,-2.9612,-2.9625,-2.9746,-2.9777,-2.9802,0,0,0,0,0,0,-2.9145,-2.915,-2.9112,-2.9248,-2.9276,-2.9284,-2.9359,-2.9313,-2.936,-2.9347,-2.9303,-2.9308,-2.943,-2.9437,-2.9359,-2.9575,-2.948,-2.9498,-2.9566,-2.9595,-2.9618,-2.9613,-2.925,0,0,0,0,0,-2.9188,-2.9257,-2.9257,-2.9377,-2.9393,-2.9374,-2.9409,-2.9381,-2.9408,-2.9419,-2.9424,-2.9453,-2.9513,-2.9554,-2.961,-2.9757,-2.976,-2.9827,-2.985,-2.9869,-2.9885,-2.9963,-2.9993,-2.9676,-2.9676,-2.9676,0,0,-2.9277,-2.9289,-2.9335,-2.9402,-2.942,-2.9492,-2.9384,-2.9465,-2.9518,-2.9431,-2.9538,-2.9542,-2.9571,-2.9702,-2.9759,-2.9712,-2.9974,-2.9887,-2.9902,-2.9907,-2.998,-3.001,-3.0037,-2.9685,-2.9683,-2.9682,0,0,-2.9477,-2.9493,-2.9594,-2.9615,-2.9644,-2.963,-2.9655,-2.967,-2.967,-2.9776,-2.9713,-2.9775,-2.9881,-2.9904,-2.993,-3.0139,-3.0088,-3.0159,-3.0279,-3.0356,-3.0381,-3.0403,-3.0477,-3.0504,-3.0175,-3.0175,-3.0175,0,-2.9585,-2.9691,-2.9652,-2.9737,-2.9769,-2.9694,-2.9796,-2.9818,-2.9864,-2.9887,-2.9833,-2.9965,-2.9979,-3.0114,-3.0165,-3.0188,-3.0215,-3.0156,-3.038,-3.0402,-3.0422,-3.0492,-3.0521,-3.0184,-3.0183,-3.0182,-3.0181,0,-2.9822,-2.9896,-2.9974,-3.0021,-3.0061,-3.0155,-3.013,-3.0175,-3.0143,-3.0136,-3.0245,-3.0259,-3.0317,-3.0347,-3.0316,-3.0477,-3.0447,-3.0388,-3.0291,-3.0461,-3.0527,-3.0553,-3.0196,-3.0193,-3.019,-3.0188,0,0,-3.01,-3.0124,-3.0154,-3.0174,-3.0201,-3.0257,-3.0348,-3.0404,-3.0443,-3.0478,-3.0552,-3.0644,-3.0589,-3.0618,-3.059,-3.0658,-3.0822,-3.059,-3.059,-3.0632,-3.1,-3.1044,-3.1076,-3.0788,-3.0793,-3.0797,-3.0997,0,-3.0298,-3.0453,-3.0421,-3.0573,-3.0642,-3.0572,-3.065,-3.0675,-3.0671,-3.0728,-3.0722,-3.0788,-3.0711,-3.0728,-3.0792,-3.0789,-3.0895,-3.0774,-3.0857,-3.086,-3.0851,-3.111,-3.1157,-3.1345,-3.1023,-3.1027,-3.103,0,-3.055,-3.0594,-3.0753,-3.0769,-3.0796,-3.0868,-3.0916,-3.0972,-3.0999,-3.0991,-3.1024,-3.0983,-3.1072,-3.0975,-3.1097,-3.1015,-3.1047,-3.1051,-3.1057,-3.1063,-3.0955,-3.1123,-3.1405,-3.1433,-3.107,-3.1067,-3.1064,0,-3.0737,-3.0836,-3.0944,-3.0964,-3.0985,-3.1036,-3.1048,-3.1069,-3.1105,-3.1148,-3.117,-3.1223,-3.1252,-3.1294,-3.1268,-3.12,-3.1395,-3.1296,-3.1391,-3.1392,-3.1434,-3.1432,-3.1725,-3.1456,-3.1456,-3.1455,-3.1455,0,-3.0962,-3.1062,-3.1028,-3.1095,-3.1205,-3.1167,-3.1277,-3.128,-3.13,-3.1365,-3.1308,-3.1371,-3.1333,-3.1393,-3.1373,-3.1477,-3.1491,-3.1487,-3.148,-3.1492,-3.1492,-3.1512,-3.1498,-3.1463,-3.1461,-3.146,-3.1458,0,-3.1189,-3.1171,-3.1284,-3.1295,-3.13,-3.138,-3.139,-3.1451,-3.1442,-3.1526,-3.1544,-3.153,-3.1598,-3.1576,-3.1649,-3.1635,-3.1767,-3.1744,-3.1759,-3.1753,-3.1848,-3.184,-3.2164,-3.2204,-3.191,-3.1913,-3.1915,0,-3.1333,-3.1408,-3.1427,-3.1467,-3.1483,-3.1548,-3.1584,-3.155,-3.159,-3.1627,-3.1684,-3.1747,-3.1795,-3.1906,-3.1902,-3.1957,-3.1935,-3.2045,-3.1943,-3.1952,-3.1936,-3.1932,-3.1939,-3.2065,-3.2068,-3.2071,-3.2073,0,-3.159,-3.1578,-3.1632,-3.1685,-3.173,-3.1769,-3.1803,-3.1839,-3.1807,-3.1855,-3.1923,-3.196,-3.2035,-3.2097,-3.2147,-3.2158,-3.2111,-3.2106,-3.213,-3.2142,-3.2147,-3.2145,-3.1813,-3.2098,-3.2096,-3.2094,-3.2092,-3.2091,-3.178,-3.1843,-3.1867,-3.193,-3.1952,-3.1985,-3.2044,-3.2042,-3.2099,-3.2156,-3.2133,-3.2212,-3.2236,-3.2299,-3.2317,-3.2378,-3.2335,-3.2371,-3.238,-3.239,-3.2402,-3.2138,-3.2387,-3.2386,-3.2385,-3.2385,-3.2384,0,-3.2034,-3.2046,-3.2104,-3.2153,-3.2203,-3.2154,-3.2189,-3.2234,-3.2304,-3.2331,-3.238,-3.2458,-3.2519,-3.252,-3.2577,-3.2625,-3.2605,-3.2641,-3.2637,-3.264,-3.2437,-3.2409,-3.2657,-3.2657,-3.2656,-3.2656,-3.2656,-3.2656,-3.2172,-3.2277,-3.2267,-3.2382,-3.2393,-3.247,-3.2494,-3.2525,-3.2546,-3.2636,-3.2686,-3.2687,-3.2704,-3.2761,-3.2814,-3.2813,-3.2836,-3.2881,-3.2872,-3.2682,-3.2654,-3.2629,-3.2603,-3.2887,-3.2887,-3.307,-3.3072,-3.3073]},{"header":{"parameterUnit":"m.s-1","parameterCategory":1,"la1":30.2991,"la2":30.254,"lo1":-89.0895,"lo2":-89.0444,"dy":0.0017,"dx":0.0017,"nx":28,"ny":28,"refTime":"2024-02-14T03:00:00:Z","depth":0,"parameterNumber":3,"parameterNumberName":"V-component_of_WINDS"},"data":[0,0,0,0,0,0,0,0,0,0,0,0,0,0,0,0,0,0,0,0,0,0,0,0,0,0,0,0,0,0,0,0,0,0,0,0,0,0,0,0,0,0,0,0,0,0,0,0,0,0,0,0,0,0,0,0,0,0,-1.7827,-1.7828,0,-1.7862,-1.7863,-1.7863,-1.7869,-1.7869,-1.7869,-1.7868,-1.7902,-1.7904,-1.7905,0,0,0,0,0,0,0,0,0,0,0,0,0,-1.7763,-1.7764,-1.7827,-1.7828,-1.7828,-1.7862,-1.7863,-1.7863,-1.7869,-1.7869,-1.7869,-1.7868,-1.7902,-1.7903,-1.7905,0,0,0,0,0,0,0,0,0,0,0,0,0,-1.7794,-1.7765,-1.7827,-1.7835,-1.7836,-1.7862,-1.7863,-1.7863,-1.7869,-1.7869,-1.7868,-1.7868,-1.7902,-1.7903,-1.7905,-1.7925,0,0,-1.791,-1.7911,0,0,0,0,0,0,0,0,-1.7792,-1.7796,-1.7834,-1.7835,-1.7836,-1.7861,-1.7853,-1.7884,-1.7869,-1.7857,-1.7868,-1.7868,-1.7889,-1.7892,-1.7899,-1.7926,-1.7928,-1.7911,-1.7912,-1.7912,-1.7913,0,0,0,0,0,0,0,-1.779,-1.7795,-1.7841,-1.7834,-1.7836,-1.7836,-1.784,-1.7858,-1.7875,-1.7858,-1.7858,-1.7863,-1.7889,-1.7897,-1.79,-1.7928,-1.7911,-1.7912,-1.7913,-1.7914,-1.7971,-1.7972,0,0,0,0,0,0,-1.7787,-1.7793,-1.784,-1.7842,-1.7813,-1.7838,-1.7842,-1.7853,-1.7875,-1.7877,-1.7863,-1.7863,-1.7895,-1.7898,-1.7901,-1.7924,-1.7912,-1.7914,-1.7915,-1.7971,-1.7971,-1.7972,0,0,0,0,0,0,-1.7785,-1.7791,-1.7838,-1.7818,-1.7824,-1.7839,-1.7852,-1.7854,-1.7862,-1.7878,-1.7881,-1.7868,-1.7894,-1.7899,-1.7918,-1.7926,-1.7915,-1.7916,-1.797,-1.7971,-1.7972,-1.7972,0,0,0,0,0,0,-1.7783,-1.779,-1.7799,-1.7818,-1.7825,-1.7856,-1.7852,-1.7855,-1.7865,-1.7866,-1.7884,-1.7887,-1.7894,-1.7916,-1.792,-1.7928,-1.7918,-1.797,-1.7971,-1.7971,-1.7971,-1.7972,-1.7973,0,0,0,0,0,-1.7781,-1.7797,-1.7799,-1.7805,-1.7836,-1.7856,-1.786,-1.7869,-1.7866,-1.7874,-1.7884,-1.7886,-1.7924,-1.7918,-1.7923,-1.7931,-1.7969,-1.797,-1.7971,-1.7971,-1.7972,-1.7973,0,0,0,0,0,0,-1.7778,-1.78,-1.7802,-1.7825,-1.7839,-1.7857,-1.7868,-1.7871,-1.7886,-1.7885,-1.7895,-1.7899,-1.7918,-1.7927,-1.7919,-1.795,-1.7946,-1.7948,-1.7944,-1.7946,-1.7947,-1.7944,-1.7919,0,0,0,0,0,-1.778,-1.7796,-1.7814,-1.7832,-1.7839,-1.7852,-1.7862,-1.7867,-1.7882,-1.7887,-1.7899,-1.7913,-1.7927,-1.7937,-1.7952,-1.7972,-1.7976,-1.798,-1.7982,-1.7982,-1.7984,-1.7994,-1.7996,-1.7975,-1.7975,-1.7975,0,0,-1.7784,-1.7798,-1.7807,-1.7832,-1.7843,-1.7858,-1.7857,-1.7873,-1.7884,-1.789,-1.7909,-1.7918,-1.7933,-1.7953,-1.7963,-1.7961,-1.799,-1.7984,-1.7984,-1.7985,-1.7996,-1.7997,-1.7999,-1.7976,-1.7976,-1.7976,0,0,-1.78,-1.7812,-1.7828,-1.784,-1.7857,-1.7865,-1.7869,-1.7887,-1.7893,-1.7913,-1.7917,-1.793,-1.7956,-1.7966,-1.7975,-1.7993,-1.7995,-1.7997,-1.8003,-1.8013,-1.8015,-1.8016,-1.8022,-1.8024,-1.7999,-1.7999,-1.7999,0,-1.7803,-1.7826,-1.7836,-1.7852,-1.7862,-1.7868,-1.7884,-1.7894,-1.7915,-1.7921,-1.7919,-1.7951,-1.7962,-1.7984,-1.7988,-1.7995,-1.7999,-1.7995,-1.8014,-1.8015,-1.8017,-1.8022,-1.8024,-1.7999,-1.7999,-1.7999,-1.7999,0,-1.7829,-1.7845,-1.7856,-1.7876,-1.7887,-1.7903,-1.7914,-1.7924,-1.7928,-1.7937,-1.7956,-1.7969,-1.7986,-1.7992,-1.7996,-1.8014,-1.8012,-1.8012,-1.8008,-1.8019,-1.8024,-1.8026,-1.7999,-1.7999,-1.7999,-1.7999,0,0,-1.7844,-1.7868,-1.7872,-1.7881,-1.79,-1.7912,-1.7928,-1.7944,-1.7952,-1.7966,-1.7979,-1.8,-1.7999,-1.8009,-1.8015,-1.8024,-1.8036,-1.8022,-1.8023,-1.8023,-1.8055,-1.8055,-1.8057,-1.8037,-1.8038,-1.8038,-1.8053,0,-1.7861,-1.7889,-1.7898,-1.7921,-1.7935,-1.794,-1.7954,-1.7966,-1.7974,-1.7987,-1.7995,-1.801,-1.8009,-1.8014,-1.8023,-1.8032,-1.8042,-1.8031,-1.8048,-1.8049,-1.8044,-1.806,-1.806,-1.8074,-1.8055,-1.8056,-1.8056,0,-1.7885,-1.7899,-1.7924,-1.794,-1.7946,-1.7958,-1.7974,-1.7986,-1.8,-1.8005,-1.8015,-1.802,-1.8035,-1.803,-1.8051,-1.8043,-1.8051,-1.8056,-1.8057,-1.8058,-1.8053,-1.8061,-1.8078,-1.808,-1.806,-1.8059,-1.8059,0,-1.7892,-1.7917,-1.7935,-1.7943,-1.7962,-1.797,-1.7979,-1.7992,-1.8001,-1.8014,-1.802,-1.8035,-1.8043,-1.8054,-1.8062,-1.8058,-1.8081,-1.8077,-1.8085,-1.8085,-1.8089,-1.8089,-1.8107,-1.8095,-1.8095,-1.8095,-1.8095,0,-1.791,-1.7925,-1.7939,-1.795,-1.7966,-1.7975,-1.7991,-1.7999,-1.8011,-1.8023,-1.8028,-1.8039,-1.8049,-1.8061,-1.8067,-1.8083,-1.8086,-1.809,-1.8091,-1.8089,-1.8089,-1.8094,-1.8093,-1.8095,-1.8095,-1.8095,-1.8095,0,-1.7921,-1.7931,-1.7951,-1.7967,-1.7972,-1.7983,-1.7997,-1.8007,-1.8015,-1.803,-1.8034,-1.8046,-1.806,-1.8069,-1.8087,-1.8091,-1.8108,-1.8109,-1.8103,-1.8104,-1.811,-1.8109,-1.8133,-1.8136,-1.8122,-1.8122,-1.8122,0,-1.7931,-1.7943,-1.796,-1.7969,-1.7977,-1.7991,-1.8,-1.8009,-1.8019,-1.8035,-1.8043,-1.8057,-1.807,-1.8092,-1.8102,-1.8115,-1.8117,-1.8124,-1.8119,-1.8116,-1.8116,-1.8115,-1.8116,-1.8124,-1.8125,-1.8125,-1.8125,0,-1.7948,-1.7953,-1.7966,-1.7981,-1.7992,-1.8005,-1.8017,-1.8023,-1.8034,-1.8044,-1.8059,-1.8068,-1.8086,-1.8101,-1.8115,-1.8122,-1.8125,-1.8126,-1.8129,-1.8126,-1.8122,-1.8124,-1.8105,-1.8126,-1.8126,-1.8126,-1.8125,-1.8125,-1.7959,-1.7969,-1.7983,-1.7997,-1.8007,-1.8018,-1.8029,-1.8037,-1.805,-1.8066,-1.807,-1.8085,-1.8098,-1.8117,-1.8125,-1.8136,-1.8135,-1.8139,-1.814,-1.814,-1.814,-1.8121,-1.8139,-1.8139,-1.8139,-1.8139,-1.8139,0,-1.7976,-1.7985,-1.7998,-1.8015,-1.8026,-1.8028,-1.8041,-1.805,-1.8063,-1.8075,-1.8087,-1.8103,-1.8116,-1.8127,-1.8141,-1.8147,-1.8149,-1.8151,-1.815,-1.8151,-1.814,-1.8137,-1.8149,-1.8149,-1.8149,-1.8149,-1.8149,-1.8149,-1.7986,-1.8003,-1.8008,-1.803,-1.8038,-1.8053,-1.8061,-1.807,-1.8079,-1.8098,-1.8109,-1.8116,-1.8127,-1.8141,-1.8153,-1.8155,-1.816,-1.8161,-1.8164,-1.8154,-1.8152,-1.8151,-1.8148,-1.8162,-1.8162,-1.8174,-1.8174,-1.8174]}]]